Weather in Derwezedäki

Turkmenistan     40°15′08″N   58°26′22″E
temp.,
°C
wind,
m/s
gust,
m/s
humid.,
%
clouds,
%
prec.,
mm/h
press.,
hPa
HPBL,
m
12 august, fri
fri1223:00+30ene47200 0.0 1012133
02:00+28ne610210 0.0 1012203
05:00+26ne59260 0.0 1012164
08:00+27ene69260 0.0 1013328
11:00+32ene78200 0.0 10132017
14:00+34ene67170 0.0 10112454
17:00+35ene67140 0.0 10102608
20:00+34ene56150 0.0 1010147
13 august, sat
sat1323:00+31ne47180 0.0 1011115
02:00+29ne713240 0.0 1011275
05:00+27ne611260 0.0 1011190
08:00+28ene611230 0.0 1012366
11:00+33ne78170 0.0 10122080
14:00+35ene77130 0.0 10102727
17:00+36ne78130 0.0 10082971
20:00+35ne58160 0.0 1008181
14 august, sun
sun1423:00+32nne58180 0.0 1008117
02:00+30nne610210 0.0 1007161
05:00+28ne611240 0.0 1008170
08:00+29ene611220 0.0 1009361
11:00+35ene78170 0.0 10092753
14:00+37ne67140 0.0 10083113
17:00+37ne56130 0.0 10063333
20:00+36nnw45150 0.0 100670
15 august, mon
mon1523:00+33nne812170 0.0 1007422
02:00+29nne611190 0.0 1007233
05:00+27nne58270 0.0 1007132
08:00+28nne56280 0.0 1008215
11:00+34ne55170 0.0 1008871
14:00+37nne55120 0.0 10072785
17:00+38nne66100 0.0 10062931
20:00+36nne45130 0.0 100753
16 august, tue
tue1623:00+33nne914170 0.0 1008396
02:00+30ne713250 0.0 1008290
05:00+29ne613280 0.0 1009245
08:00+29ne712250 0.0 1011418
11:00+34ne79170 0.0 10111528
14:00+37nne89120 0.0 10102485
17:00+37ne91090 0.0 10092777
20:00+35nne913110 0.0 1010428